Regional Weather Roundup
Issued by NWS Kansas City/Pleasant Hill, MO

Home | Current Version | Previous Version | Graphics & Text | Print | Product List | Glossary Off
Versions: 1 2 3 4 5 6 7 8 9 10 11 12 13 14 15 16 17 18 19 20 21 22 23 24 25 26 27 28 29 30 31 32 33 34 35 36 37 38 39 40 41 42 43 44 45 46 47 48 49 50

000
ASUS43 KEAX 222010
RWREAX

WEATHER ROUNDUP FOR EASTERN KANSAS AND NORTHWEST MISSOURI
NATIONAL WEATHER SERVICE KANSAS CITY/PLEASANT HILL MO
300 PM CDT TUE APR 22 2014

KSZ040-057-103>105-MOZ028-029-037-043-222100-
...KANSAS CITY METROPOLITAN AREA...

CITY           SKY/WX    TMP DP  RH WIND       PRES   REMARKS
K.C. INTL      MOSUNNY   67  32  27 CALM      30.08F
K.C. DOWNTOWN  SUNNY     69  32  25 VRB5      30.06F
LEES SUMMIT    SUNNY     65  32  29 E5        30.07F
OLATHE - IXD   SUNNY     68  29  23 VRB5      30.08F
OLATHE - OJC   SUNNY     66  29  24 MISG      30.07F
LAWRENCE       SUNNY     70  31  23 N5        30.07F

$$

MOZ001>008-011>017-020>025-030>033-038>040-044>046-053-054-222100-
...NORTHERN AND CENTRAL MISSOURI...

CITY           SKY/WX    TMP DP  RH WIND       PRES   REMARKS
ST. JOSEPH     SUNNY     65  31  28 SW3       30.09S
MOSBY          FAIR      64  34  32 N5        30.07F
WARRENSBURG    SUNNY    N/A N/A N/A N7        30.07F
WHITEMAN AFB   SUNNY     65  28  25 NE8       30.08F
CLINTON        SUNNY     66  39  37 NW8       30.08F
SEDALIA        SUNNY     67  34  29 NW9G17    30.08F
WARSAW         NOT AVBL
MARSHALL         N/A     68  36  30 NE8       30.08F
CHILLICOTHE      N/A     65  35  33 VRB6      30.09F
MOBERLY        SUNNY     64  32  29 N6        30.08F
KIRKSVILLE     SUNNY     64  33  31 N15       30.08F

$$

MOZ041-047>049-056>058-063>065-088>090-097-222100-
...EASTERN AND SOUTHERN MISSOURI...

CITY           SKY/WX    TMP DP  RH WIND       PRES   REMARKS
ST. LOUIS INTL MOSUNNY   68  39  34 W12G20    30.01F
SPIRIT OF STL  SUNNY     66  38  35 W14       30.01F
COLUMBIA       SUNNY     65  36  34 NW14G22   30.06F
JEFFERSON CITY SUNNY     67  28  23 N8G17     30.05F
MEXICO         SUNNY     63  36  36 NW10G17   30.06S
HANNIBAL       SUNNY     66  25  20 NW10G16   30.05F
ROLLA          SUNNY     67  35  30 N13G20    30.03S
LEBANON        SUNNY     70  32  24 N9        30.05F
OSAGE BEACH    SUNNY     68  34  28 NE9       30.06F
SPRINGFIELD    SUNNY     68  36  30 NW6       30.04F
BRANSON        MOSUNNY   68  34  28 NW9G17    30.04F
NEVADA         SUNNY     66  37  34 N8        30.07F
JOPLIN         SUNNY     68  37  32 VRB6      30.07F
WEST PLAINS    SUNNY     73  34  23 NW8       30.01F
MALDEN         SUNNY     73  45  35 N12       29.95F

$$

IAZ060-094-KSZ022-034>040-054-083-096-NEZ052-066-093-222100-
...KANSAS...SOUTHEAST NEBRASKA AND IOWA...

CITY           SKY/WX    TMP DP  RH WIND       PRES   REMARKS
TOPEKA         SUNNY     70  33  25 VRB6      30.08F
MANHATTAN      SUNNY     71  32  23 VRB6      30.06F
EMPORIA        SUNNY     69  33  26 E7        30.07F
CHANUTE        SUNNY     70  32  24 NE8       30.07F
WICHITA        PTSUNNY   74  31  20 SE8       30.06F
OMAHA          MOSUNNY   65  31  28 S5        30.08F
LINCOLN        MOSUNNY   69  33  26 SE8       30.07F
FALLS CITY     SUNNY     69  31  24 VRB6      30.07F
LAMONI         SUNNY     64  32  30 VRB6      30.08F
DES MOINES     MOSUNNY   65  30  27 N9        30.08F

$$




USA.gov is the U.S. government's official web portal to all federal, state and local government web resources and services.